Regional Weather Roundup
Issued by NWS

Home | Current Version | Previous Version | Text Only | Print | Product List | Glossary Off
Versions: 1 2 3 4 5 6 7 8 9 10 11 12 13 14 15 16 17 18 19 20 21 22 23 24 25 26 27 28 29 30 31 32 33 34 35 36 37 38 39 40 41 42 43 44 45 46 47 48 49 50

000
ASUS43 KDTX 221101
RWRMI
MICHIGAN HOURLY REGIONAL WEATHER ROUNDUP
NATIONAL WEATHER SERVICE DETROIT/PONTIAC MI
700 AM EDT WED OCT 22 2014

NOTE: "FAIR" INDICATES FEW OR NO CLOUDS BELOW 12,000 FEET WITH NO
SIGNIFICANT WEATHER AND/OR OBSTRUCTION TO VISIBILITY.

MIZ047>049-052>055-059>063-066>070-074>076-081>083-221200-
SOUTHEAST LOWER MICHIGAN

CITY           SKY/WX    TMP DP  RH WIND       PRES   REMARKS
ADRIAN         CLOUDY    43  37  79 N5        30.29R
ALMA           CLOUDY    40  35  83 N6        30.34R
ANN ARBOR      PTCLDY    43  35  73 N7        30.27R
BAD AXE        CLOUDY    44  40  86 N7        30.31R
CARO           CLOUDY    43  38  82 NE3       30.30S
DETROIT CITY   CLOUDY    48  39  71 N10       30.28R
DETROIT        CLOUDY    46  39  76 N9        30.28R
FLINT          CLOUDY    45  37  73 N7        30.31R
GROSSE ILE     CLOUDY    46  39  76 N9        30.25R
HILLSDALE      CLOUDY    41  38  91 N5        30.28R
HOWELL         CLOUDY    42  37  85 N3        30.29R

CITY           SKY/WX    TMP DP  RH WIND       PRES   REMARKS
JACKSON        CLOUDY    38  35  89 NW3       30.30R
LAMBERTVILLE   CLOUDY    45  37  76 N5        30.27R
LANSING        CLOUDY    40  35  83 NW5       30.32R
LAPEER         CLOUDY    43  38  82 N3        30.29R
MASON          CLOUDY    40  37  87 N5        30.31R
MONROE         CLOUDY    45  39  81 NW5       30.26R
MT. CLEMENS    CLOUDY    46  40  81 N8        30.25R
PONTIAC        CLOUDY    43  37  79 N8        30.27R
PORT HOPE        N/A     46  39  76 N12       30.30R
PORT HURON     CLOUDY    45  39  81 N6        30.27R
TRI CITIES     CLOUDY    43  36  76 N9        30.33R
TROY           CLOUDY    46  39  76 N7G17     30.29R
SAGINAW HB     CLOUDY    45  39  81 CALM      30.31S
$$
MIZ043>046-050>051-056>058-064>065-071>073-077>080-221200-
SOUTHWEST LOWER MICHIGAN

CITY           SKY/WX    TMP DP  RH WIND       PRES   REMARKS
BATTLE CREEK   CLOUDY    35  31  85 N5        30.32R WCI  31
BENTON HARBOR  CLEAR     29  29 100 CALM      30.33R
BIG RAPIDS     CLEAR     28  28 100 CALM      30.34R
COLDWATER      CLOUDY    38  37  93 CALM      30.31R
FREMONT        FAIR      32  31  97 E5        30.34R WCI  27
HOLLAND        CLEAR     32  29  88 CALM      30.34R
GRAND RAPIDS   CLEAR     30  28  92 CALM      30.34R
IONIA          CLOUDY    37  34  90 CALM      30.32R
KALAMAZOO      CLEAR     31  30  96 N3        30.33R
LUDINGTON      CLEAR     27  26  96 CALM      30.36R
MARSHALL       CLOUDY    36  33  91 CALM      30.31R
MOUNT PLEASANT CLOUDY    39  35  83 N3        30.34R
MUSKEGON       CLEAR     32  27  81 CALM      30.35R
SOUTH HAVEN    CLEAR     33  32  96 CALM      30.33R
$$
MIZ016>042-221200-
NORTHERN LOWER MICHIGAN

CITY           SKY/WX    TMP DP  RH WIND       PRES   REMARKS
ALPENA         CLOUDY    41  34  76 N6        30.35R
BEAVER ISLAND  CLEAR     28  28  99 CALM      30.38S
BELLAIRE       PTCLDY    27  26  94 CALM      30.40R
CADILLAC       CLOUDY    22  21  96 NW3       30.34R
CHARLEVOIX     CLEAR     31  30  99 CALM      30.41R
FRANKFORT      PTCLDY    27  25  90 CALM      30.37S
GAYLORD        CLOUDY    33  28  81 CALM      30.35R
GRAYLING       CLOUDY    34  32  92 E3        30.35R
HARBOR SPRINGS CLOUDY    32  30  92 N5        30.39R WCI  27
HOUGHTON LAKE  CLOUDY    35  32  88 N3        30.35R
MANISTEE       PTCLDY    25  21  86 E5        30.36S WCI  19
OSCODA         CLOUDY    42  37  82 N6        30.32R
PELLSTON       CLOUDY    27  26  96 CALM      30.39R
TRAVERSE CITY  CLEAR     27  25  92 CALM      30.37R
$$
MIZ007>008-015-221200-
EASTERN UPPER MICHIGAN

CITY           SKY/WX    TMP DP  RH WIND       PRES   REMARKS
KINROSS        MOCLDY    27  27 100 CALM      30.39R
MACKINAC ISLAN CLOUDY    38  33  85 NE5       30.38R WCI  34
NEWBERRY       PTCLDY    28  27  96 E3        30.38R
S. S. MARIE    PTCLDY    29  25  85 NE3       30.39R
MUNISING         N/A     32  27  81 SW3       30.36R
$$
MIZ004>006-011>014-085-221200-
CENTRAL UPPER MICHIGAN

CITY           SKY/WX    TMP DP  RH WIND       PRES   REMARKS
MANISTIQUE     PTCLDY    28  27  99 CALM      30.36S
ESCANABA       PTCLDY    28  25  86 CALM      30.35S
MENOMINEE      PTCLDY    28  27  93 CALM      30.35R
$$
MIZ001>003-009>011-084-221200-
WESTERN UPPER MICHIGAN

CITY           SKY/WX    TMP DP  RH WIND       PRES   REMARKS
IRON MOUNTAIN  FOG       26  25  96 CALM      30.33S VSB 1/2
HOUGHTON       CLEAR     30  27  88 S5        30.30S WCI  25
COPPER HARBOR    N/A     39  32  76 SW12G18   30.30F WCI  32
IRONWOOD       CLEAR     37  32  81 S7        30.25R WCI  32
$$

ABBREVIATIONS USED IN REMARKS
   TC - TEMPERATURE IN CELSIUS
  WCI - WIND CHILL INDEX
   HX - HEAT INDEX
  VSB - VISIBILITY




USA.gov is the U.S. government's official web portal to all federal, state and local government web resources and services.